Regional Weather Roundup
Issued by NWS Sioux Falls, SD

Home | Current Version | Previous Version | Text Only | Print | Product List | Glossary On
Versions: 1 2 3 4 5 6 7 8 9 10 11 12 13 14 15 16 17 18 19 20 21 22 23 24 25 26 27 28 29 30 31 32 33 34 35 36 37 38 39 40 41 42 43 44 45 46 47 48 49 50
000
ASUS43 KFSD 250810
RWRFSD

WEATHER ROUNDUP FOR SE SOUTH DAKOTA/SW MINNESOTA/NW IOWA
NATIONAL WEATHER SERVICE SIOUX FALLS SD
300 AM CDT THU AUG 25 2016

NOTE: "FAIR" INDICATES FEW OR NO CLOUDS BELOW 12,000 FEET WITH NO
SIGNIFICANT WEATHER AND OR OBSTRUCTIONS TO VISIBILITY.


SDZ038>040-050-052>070-250900-
SOUTHEAST SOUTH DAKOTA

CITY           SKY/WX    TMP DP  RH WIND       PRES   REMARKS
CHAMBERLAIN    MOCLDY    65  50  59 N12G17    30.14R
HURON          CLEAR     54  49  83 NW6       30.10R
MADISON        FAIR      59  55  88 W9        30.08F
MITCHELL       CLEAR     61  54  77 W9        30.10R
SIOUX FALLS    CLEAR     59  55  87 CALM      30.08S
WINNER         FAIR      57  51  80 N8        30.16R
YANKTON        PTCLDY    57  52  82 CALM      30.09S
$$

MNZ071-072-080-081-089-090-097-098-250900-
SOUTHWEST MINNESOTA

CITY           SKY/WX    TMP DP  RH WIND       PRES   REMARKS
FAIRMONT       CLOUDY    60  57  89 W6        30.07R
JACKSON        PTCLDY    59  54  82 W3        30.08S
LUVERNE        PTCLDY    55  54  94 CALM      30.09S
MARSHALL       CLEAR     61  55  81 SW7       30.05S
MONTEVIDEO     CLEAR     57  54  88 W5        30.04S
REDWOOD FALLS  CLEAR     60  56  86 SW7       30.04R
TRACY          CLEAR     61  56  84 SW7       30.06R
WINDOM         PTCLDY    59  55  88 W5        30.07S
WORTHINGTON    PTCLDY    59  57  93 W6        30.09S
$$

IAZ001>003-012>014-020>022-031-032-NEZ013-014-SDZ071-250900-
NORTHWEST IOWA

CITY           SKY/WX    TMP DP  RH WIND       PRES   REMARKS
CHEROKEE       PTCLDY    59  58  96 N3        30.09S
DENISON        CLOUDY    59  59 100 CALM      30.07R
ESTHERVILLE    PTCLDY    57  56  96 W7        30.08R
LE MARS        PTCLDY    59  57  94 CALM      30.10R
ORANGE CITY    PTCLDY    61  57  88 NW3       30.09S
SHELDON        PTCLDY    55  55 100 CALM      30.08S
SIOUX CITY     CLOUDY    59  56  89 W3        30.09R
SPENCER        PTCLDY    57  55  93 NW5       30.09R
STORM LAKE     CLEAR     61  57  88 NW8       30.09S
$$

ABBREVIATIONS USED IN REMARKS
   TC - TEMPERATURE IN CELSIUS
  WCI - WIND CHILL INDEX
   HX - HEAT INDEX
  VSB - VISIBILITY





USA.gov is the U.S. government's official web portal to all federal, state and local government web resources and services.